(72) Feronia
ephemeris date magn radius delta ra dec elong phase
Today5 Jul 202513.02.155 AU1.610 AU14h01m-08°28'108.2°26.6°
Opposition9 Nov 202611.62.263 AU1.273 AU03h02m+13°55'176.8°1.4°
(72) Feronia - 2025-07-05
astro.vanbuitenen.nl


 
-1 year
-1 month
-1 day
Now
+1 day
+1 month
+1 year

The interactive orbit chart above shows the body's path through the solar system and its position at the given date. Green and blue lines are shown perpendicular to the ecliptic plane: Green if the path is above the ecliptic plane, blue if it is below. (Left-click and drag to rotate the view; Right-click and drag to move the view; Use scroll wheel to zoom in our out.)

The orbital elements of Feronia are:

            e (Eccentricity)                : 0.1214213
            a (Semimajor axis)              : 2.2660464
            i (Inclination)                 : 5.41810
            Ω (Longitude of ascending node) : 207.93462
            ω (Argument of perihelion)      : 102.75320
            M (Mean anomaly)                : 282.48196
            Epoch                           : 2025 May 05

            L (Longitude of perihelion)     : 130.74317
            B (Latitude of perihelion)      : 5.28405
            P (Orbital period in years)     : 3.41            
        

The light curve chart below shows the estimated development of the minor planet's magnitude.


The all-sky chart below shows the path of the minor planet over the same period as the light curve. The current position is marked yellow.





The following chart shows the path of the minor planet in the next few days. The field of view is optimized for (~10x50) binoculars and finderscopes. A more printer-friendly version of the same chart can be found below.




Ephemerides:
Date       Time       RA (2000)    DEC (2000)    delta   radius  elong  phase   PA    magn
2025-07-05 00:00 UT   14 01 00.1   -08 28 11     1.610    2.155  108.2   26.6   111   13.0 
2025-07-05 22:03 UT   14 01 36.8   -08 30 51     1.618    2.154  107.5   26.8   111   13.0 
2025-07-06 00:00 UT   14 01 40.1   -08 31 06     1.619    2.154  107.4   26.8   111   13.0 
2025-07-07 00:00 UT   14 02 21.5   -08 34 10     1.629    2.153  106.6   26.9   111   13.0 
2025-07-08 00:00 UT   14 03 04.4   -08 37 23     1.638    2.151  105.9   27.0   111   13.0 
2025-07-09 00:00 UT   14 03 48.7   -08 40 44     1.648    2.150  105.1   27.2   111   13.0 
2025-07-10 00:00 UT   14 04 34.5   -08 44 14     1.658    2.149  104.3   27.3   111   13.0 
2025-07-11 00:00 UT   14 05 21.7   -08 47 51     1.667    2.147  103.6   27.4   111   13.1 
2025-07-12 00:00 UT   14 06 10.2   -08 51 36     1.677    2.146  102.9   27.5   111   13.1 
2025-07-13 00:00 UT   14 07 00.1   -08 55 30     1.687    2.145  102.1   27.6   111   13.1 
2025-07-14 00:00 UT   14 07 51.4   -08 59 30     1.697    2.143  101.4   27.7   111   13.1 
2025-07-15 00:00 UT   14 08 44.0   -09 03 38     1.707    2.142  100.7   27.8   110   13.1 
2025-07-16 00:00 UT   14 09 37.9   -09 07 53     1.717    2.141   99.9   27.9   110   13.1 
2025-07-17 00:00 UT   14 10 33.1   -09 12 15     1.727    2.139   99.2   28.0   110   13.1 
2025-07-18 00:00 UT   14 11 29.6   -09 16 44     1.737    2.138   98.5   28.0   110   13.2 
2025-07-19 00:00 UT   14 12 27.3   -09 21 19     1.747    2.137   97.8   28.1   110   13.2 
2025-07-20 00:00 UT   14 13 26.4   -09 26 01     1.756    2.136   97.1   28.2   110   13.2 
2025-07-21 00:00 UT   14 14 26.6   -09 30 50     1.766    2.134   96.4   28.2   110   13.2 
2025-07-22 00:00 UT   14 15 28.1   -09 35 44     1.776    2.133   95.7   28.3   110   13.2 
2025-07-23 00:00 UT   14 16 30.9   -09 40 45     1.787    2.132   95.1   28.3   110   13.2 
2025-07-24 00:00 UT   14 17 34.8   -09 45 51     1.797    2.130   94.4   28.4   109   13.2 
2025-07-25 00:00 UT   14 18 39.9   -09 51 03     1.807    2.129   93.7   28.4   109   13.2 
2025-07-26 00:00 UT   14 19 46.2   -09 56 21     1.817    2.128   93.0   28.5   109   13.3 
2025-07-27 00:00 UT   14 20 53.7   -10 01 43     1.827    2.127   92.4   28.5   109   13.3 
2025-07-28 00:00 UT   14 22 02.3   -10 07 11     1.837    2.125   91.7   28.5   109   13.3 
2025-07-29 00:00 UT   14 23 12.0   -10 12 44     1.847    2.124   91.1   28.6   109   13.3 
2025-07-30 00:00 UT   14 24 22.9   -10 18 21     1.857    2.123   90.4   28.6   109   13.3 
2025-07-31 00:00 UT   14 25 34.8   -10 24 03     1.867    2.121   89.8   28.6   109   13.3 
2025-08-01 00:00 UT   14 26 47.8   -10 29 49     1.877    2.120   89.1   28.6   109   13.3 
2025-08-02 00:00 UT   14 28 01.9   -10 35 39     1.887    2.119   88.5   28.6   108   13.3 
2025-08-03 00:00 UT   14 29 17.1   -10 41 34     1.897    2.118   87.9   28.6   108   13.3 
2025-08-04 00:00 UT   14 30 33.2   -10 47 32     1.907    2.116   87.2   28.6   108   13.4 


    Terminology:
            
    delta:  distance between minor planet and earth in AU
    radius: distance between minor planet and sun in AU
    magn:   magnitude (brightness) estimate    
    ra:     right ascension in hours (24h = 360deg)
    dec:    declination in degrees
    elong:  elongation in degrees (angle sun-earth-minor planet)    
    phase:  phase angle in degrees (angle sun-minor planet-earth)        
    AU:     Astronomical Unit (mean distance between earth and sun: 149597870.7 km
    

Orbital elements provided by the MPC (Minor Planet Center).
Calculations by a modified version of AAPlus, a C# implementation of the AA+ project by PJ Naughter from the algorithms presented in the book "Astronomical Algorithms" by Jean Meeus.
NGC2000 dso catalog and star labels from VizieR as provided by the Strasbourg astronomical Data Center.
Tycho2 catalog from the ESO archive.